Date String (YYYY-MM-DD hh:mm:ss) UTC,Instrument flags,absolute air pressure of the measurement (hPa),sample flow rate (lpm),inlet stack bypass flow (lpm),air temperature of the measurement (°C),ambient temperature measured by the external sensor (°C),aerosol sample conditioner tube jacket temperature (°C),OPC LED temperature (°C),internal box temperature (°C),relative humidity of the measurement (%),span deviation,mass concentration of particles derived from Lorenz-Mie calculation of OPC scattering (μg/m³),mass concentration of particles derived from Lorenz-Mie calculation of OPC scattering (μg/m³),mass concentration of particles derived from Lorenz-Mie calculation of OPC scattering (μg/m³)
DateTimeUTC,F1_M11,P_M11,Q1_M11,Q2_M11,T1_M11,T2_M11,T3_M11,T4_M11,T5_M11,U1_M11,ZSPAN_M11,X0_M11,X2_M11,X1_M11
2023-08-20 02:00:00,SystemResetWarning,0834.5,4.98,000.00,029.8,024.1,000.0,037.8,029.5,35.1,0000.0,0010.49,0003.95,0003.03
2023-08-20 02:01:00,SystemResetWarning,0834.5,5.03,000.00,029.8,024.6,000.0,037.8,029.7,35.1,0000.0,0009.82,0003.98,0003.06
2023-08-20 02:02:00,SystemResetWarning,0835.0,4.98,000.00,030.0,025.1,000.0,037.8,030.0,34.7,0000.0,0009.42,0003.98,0003.06
2023-08-20 02:03:00,SystemResetWarning,0834.7,5.01,000.00,030.1,025.5,000.0,037.8,030.1,34.3,0000.0,0009.51,0004.03,0003.08
2023-08-20 02:04:00,SystemResetWarning,0834.9,5.01,000.00,030.2,025.9,000.0,037.8,030.2,34.2,0000.0,0010.09,0004.12,0003.11
2023-08-20 02:05:00,SystemResetWarning,0834.9,5.00,000.00,030.2,026.2,000.0,037.9,030.2,34.2,0000.0,0010.25,0004.12,0003.11
2023-08-20 02:06:00,SystemResetWarning,0834.8,4.99,000.00,030.3,026.5,000.0,037.9,030.3,34.1,0000.0,0010.29,0004.16,0003.14
2023-08-20 02:07:00,SystemResetWarning,0834.9,4.99,000.00,030.3,025.8,000.0,037.9,030.1,33.9,0000.0,0010.35,0004.22,0003.15
2023-08-20 02:08:00,SystemResetWarning,0835.0,5.00,000.00,030.2,024.3,000.0,037.8,029.9,33.9,0000.0,0010.41,0004.24,0003.16
2023-08-20 02:09:00,SystemResetWarning,0835.3,5.00,000.00,030.2,023.8,000.0,037.7,029.7,33.9,0000.0,0010.45,0004.25,0003.16
2023-08-20 02:10:00,SystemResetWarning,0835.3,5.00,000.00,030.0,023.9,000.0,037.7,029.5,33.8,0000.0,0010.60,0004.22,0003.16
2023-08-20 02:11:00,SystemResetWarning,0834.8,5.01,000.00,029.8,024.3,000.0,037.8,029.6,33.8,0000.0,0011.00,0004.30,0003.17
2023-08-20 02:12:00,SystemResetWarning,0834.7,5.00,000.00,029.8,024.8,000.0,037.8,029.7,33.9,0000.0,0011.13,0004.31,0003.17
2023-08-20 02:13:00,SystemResetWarning,0834.7,5.00,000.00,029.7,025.2,000.0,037.8,029.8,33.6,0000.0,0011.23,0004.31,0003.17
2023-08-20 02:14:00,SystemResetWarning,0834.7,5.01,000.00,029.7,025.7,000.0,037.8,030.0,33.5,0000.0,0011.39,0004.31,0003.19
2023-08-20 02:15:00,SystemResetWarning,0834.8,5.00,000.00,029.7,026.0,000.0,037.8,030.1,33.4,0000.0,0011.02,0004.27,0003.19
2023-08-20 02:16:00,SystemResetWarning,0835.1,5.00,000.00,029.7,026.3,000.0,037.8,030.1,33.4,0000.0,0010.67,0004.25,0003.21
2023-08-20 02:17:00,SystemResetWarning,0834.7,5.00,000.00,029.7,026.4,000.0,037.8,030.2,33.4,0000.0,0010.74,0004.27,0003.21
2023-08-20 02:18:00,SystemResetWarning,0834.7,4.98,000.00,029.7,025.2,000.0,037.7,030.0,33.0,0000.0,0010.98,0004.23,0003.20
2023-08-20 02:19:00,SystemResetWarning,0835.1,5.01,000.00,029.6,023.9,000.0,037.5,029.7,33.0,0000.0,0010.98,0004.21,0003.19
2023-08-20 02:20:00,SystemResetWarning,0834.9,5.01,000.00,029.5,023.7,000.0,037.5,029.5,32.6,0000.0,0010.71,0004.12,0003.17
2023-08-20 02:21:00,SystemResetWarning,0834.7,4.99,000.00,029.3,024.0,000.0,037.5,029.3,33.2,0000.0,0010.59,0004.09,0003.15
2023-08-20 02:22:00,SystemResetWarning,0834.8,5.00,000.00,029.2,024.4,000.0,037.5,029.5,33.6,0000.0,0009.61,0004.04,0003.14
2023-08-20 02:23:00,SystemResetWarning,0834.8,5.00,000.00,029.1,024.9,000.0,037.4,029.6,33.5,0000.0,0009.49,0004.00,0003.14
2023-08-20 02:24:00,SystemResetWarning,0834.7,5.00,000.00,029.1,025.3,000.0,037.4,029.7,33.8,0000.0,0009.16,0003.98,0003.13
2023-08-20 02:25:00,SystemResetWarning,0834.9,5.00,000.00,029.1,025.7,000.0,037.4,029.9,34.2,0000.0,0008.42,0003.94,0003.12
2023-08-20 02:26:00,SystemResetWarning,0834.8,5.01,000.00,029.1,026.1,000.0,037.4,029.9,34.3,0000.0,0008.58,0003.93,0003.11
2023-08-20 02:27:00,SystemResetWarning,0834.7,4.99,000.00,029.1,026.4,000.0,037.4,030.0,34.2,0000.0,0009.02,0003.94,0003.09
2023-08-20 02:28:00,SystemResetWarning,0834.7,4.99,000.00,029.2,026.1,000.0,037.4,030.0,34.1,0000.0,0009.04,0003.93,0003.08
2023-08-20 02:29:00,SystemResetWarning,0834.7,5.00,000.00,029.1,024.6,000.0,037.2,029.7,33.9,0000.0,0008.76,0003.92,0003.08
2023-08-20 02:30:00,SystemResetWarning,0834.7,5.00,000.00,029.0,023.7,000.0,037.1,029.4,33.9,0000.0,0008.68,0003.88,0003.06
2023-08-20 02:31:00,SystemResetWarning,0834.8,5.00,000.00,028.9,023.7,000.0,037.0,029.2,34.2,0000.0,0008.88,0003.93,0003.06
2023-08-20 02:32:00,SystemResetWarning,0835.0,5.01,000.00,028.7,024.0,000.0,037.0,029.2,34.6,0000.0,0009.50,0003.94,0003.06
2023-08-20 02:33:00,SystemResetWarning,0835.3,5.00,000.00,028.6,024.5,000.0,037.0,029.3,34.5,0000.0,0009.49,0003.90,0003.05
2023-08-20 02:34:00,SystemResetWarning,0835.4,5.00,000.00,028.6,025.0,000.0,037.0,029.5,34.5,0000.0,0009.34,0003.87,0003.03
2023-08-20 02:35:00,SystemResetWarning,0835.0,5.01,000.00,028.6,025.4,000.0,037.0,029.6,34.3,0000.0,0009.42,0003.93,0003.04
2023-08-20 02:36:00,SystemResetWarning,0835.0,5.00,000.00,028.6,025.8,000.0,037.0,029.7,34.5,0000.0,0009.32,0003.92,0003.03
2023-08-20 02:37:00,SystemResetWarning,0835.0,5.00,000.00,028.7,026.1,000.0,037.0,029.8,34.4,0000.0,0009.39,0003.95,0003.03
2023-08-20 02:38:00,SystemResetWarning,0835.1,5.00,000.00,028.7,026.4,000.0,037.0,029.9,34.4,0000.0,0008.92,0003.97,0003.02
2023-08-20 02:39:00,SystemResetWarning,0835.2,5.00,000.00,028.7,026.6,000.0,037.0,029.9,34.2,0000.0,0008.86,0003.97,0003.02
2023-08-20 02:40:00,SystemResetWarning,0835.2,4.98,000.00,028.7,025.9,000.0,036.9,029.8,34.1,0000.0,0009.26,0003.93,0003.00
2023-08-20 02:41:00,SystemResetWarning,0835.1,5.01,000.00,028.7,024.3,000.0,036.8,029.5,34.3,0000.0,0009.83,0003.96,0003.00
2023-08-20 02:42:00,SystemResetWarning,0835.2,5.01,000.00,028.6,023.7,000.0,036.7,029.4,34.4,0000.0,0010.00,0003.96,0003.00
2023-08-20 02:43:00,SystemResetWarning,0835.1,5.01,000.00,028.4,023.8,000.0,036.7,029.2,34.7,0000.0,0009.63,0003.96,0002.99
2023-08-20 02:44:00,SystemResetWarning,0835.2,4.98,000.00,028.3,024.2,000.0,036.7,029.2,35.0,0000.0,0009.28,0003.96,0002.96
2023-08-20 02:45:00,SystemResetWarning,0835.2,5.04,000.00,028.4,024.7,000.0,036.7,029.4,34.9,0000.0,0009.11,0003.95,0002.93
2023-08-20 02:46:00,SystemResetWarning,0835.2,4.96,000.00,028.6,025.1,000.0,036.7,029.6,34.3,0000.0,0009.09,0003.91,0002.88
2023-08-20 02:47:00,SystemResetWarning,0835.2,5.01,000.00,028.6,025.5,000.0,036.7,029.7,33.9,0000.0,0009.44,0003.86,0002.84
2023-08-20 02:48:00,SystemResetWarning,0835.3,5.01,000.00,028.7,025.9,000.0,036.8,029.8,33.7,0000.0,0010.06,0003.86,0002.79
2023-08-20 02:49:00,SystemResetWarning,0835.3,4.99,000.00,028.7,026.2,000.0,036.8,029.8,33.5,0000.0,0009.91,0003.78,0002.75
2023-08-20 02:50:00,SystemResetWarning,0835.2,5.00,000.00,028.8,026.4,000.0,036.8,029.9,33.4,0000.0,0009.85,0003.72,0002.69
2023-08-20 02:51:00,SystemResetWarning,0835.3,5.00,000.00,028.8,026.6,000.0,036.9,030.0,33.3,0000.0,0009.71,0003.68,0002.65
2023-08-20 02:52:00,SystemResetWarning,0835.2,4.98,000.00,028.8,025.4,000.0,036.8,029.8,33.4,0000.0,0009.01,0003.61,0002.59
2023-08-20 02:53:00,SystemResetWarning,0835.1,5.00,000.00,028.8,024.0,000.0,036.7,029.5,33.3,0000.0,0009.19,0003.55,0002.55
2023-08-20 02:54:00,SystemResetWarning,0835.2,5.00,000.00,028.7,023.6,000.0,036.7,029.3,33.3,0000.0,0009.39,0003.51,0002.52
2023-08-20 02:55:00,SystemResetWarning,0835.2,5.01,000.00,028.5,023.9,000.0,036.7,029.1,33.5,0000.0,0009.38,0003.50,0002.52
2023-08-20 02:56:00,SystemResetWarning,0835.3,5.01,000.00,028.5,024.3,000.0,036.7,029.2,33.5,0000.0,0009.33,0003.49,0002.54
2023-08-20 02:57:00,SystemResetWarning,0835.3,5.00,000.00,028.4,024.7,000.0,036.7,029.4,33.7,0000.0,0009.20,0003.49,0002.55
2023-08-20 02:58:00,SystemResetWarning,0835.2,5.00,000.00,028.4,025.2,000.0,036.7,029.5,33.7,0000.0,0008.80,0003.45,0002.55
2023-08-20 02:59:00,SystemResetWarning,0835.3,5.00,000.00,028.5,025.6,000.0,036.7,029.6,33.6,0000.0,0008.08,0003.41,0002.55
